Location: Arrodets-la-Barthe
(43.0306°N, 0.2829°E)
Time: 00:53:56
(UTC+00:00)

Iridium 4 Rocket - Pass Details

Date: 29 May 2022
Orbit: 585 x 902 km, 86.9° (Epoch: 03 July)

Event Time Altitude Azimuth Distance (km) Brightness Sun altitude
Rises 23:16:07 0° 348° (NNW) 3,029 8.0 -24.6°
Reaches altitude 10° 23:18:26 10° 340° (NNW) 2,157 6.9 -24.6°
Maximum altitude 23:22:48 37° 274° (W) 1,145 4.4 -24.8°
Enters shadow 23:23:45 34° 250° (WSW) 1,226 4.4 -24.8°
